This is the latest recevied weather packets stored in our database for station/object KD4PMP. If no packets are shown the sender has not sent any weather packets the latest 10 day(s).
| Time | Temp. | Humidity | Pressure | Rain* | Wind** | Luminosity | Snow |
|---|---|---|---|---|---|---|---|
| 1788557779 | 37.22° C | 48% | 1011.5 hPa | 0 mm | - | - | - |
| 1788557172 | 37.22° C | 50% | 1011.5 hPa | 0 mm | - | - | - |
| 1788556566 | 37.22° C | 49% | 1011.6 hPa | 0 mm | - | - | - |
| 1788555960 | 37.22° C | 49% | 1011.6 hPa | 0 mm | - | - | - |
| 1788555354 | 37.78° C | 48% | 1011.7 hPa | 0 mm | - | - | - |
| 1788554747 | 38.33° C | 48% | 1011.6 hPa | 0 mm | - | - | - |
| 1788554141 | 38.89° C | 47% | 1011.8 hPa | 0 mm | - | - | - |
| 1788553535 | 38.33° C | 48% | 1011.8 hPa | 0 mm | - | - | - |
| 1788552929 | 38.33° C | 47% | 1012.1 hPa | 0 mm | - | - | - |
| 1788552322 | 38.33° C | 47% | 1012.3 hPa | 0 mm | - | - | - |
| 1788551716 | 37.78° C | 48% | 1012.3 hPa | 0 mm | - | - | - |
| 1788551109 | 36.67° C | 51% | 1012.6 hPa | 0 mm | - | - | - |
| 1788550503 | 36.67° C | 50% | 1012.7 hPa | 0 mm | - | - | - |
| 1788549897 | 36.11° C | 51% | 1012.8 hPa | 0 mm | - | - | - |
| 1788549290 | 36.67° C | 51% | 1013.2 hPa | 0 mm | - | - | - |
| 1788548684 | 36.67° C | 50% | 1013.2 hPa | 0 mm | - | - | - |
| 1788548077 | 37.22° C | 49% | 1013.3 hPa | 0 mm | - | - | - |
| 1788547471 | 37.22° C | 48% | 1013.3 hPa | 0 mm | - | - | - |
| 1788546865 | 37.22° C | 49% | 1013.6 hPa | 0 mm | - | - | - |
| 1788546258 | 37.22° C | 50% | 1013.7 hPa | 0 mm | - | - | - |
| 1788545652 | 36.67° C | 50% | 1013.7 hPa | 0 mm | - | - | - |
| 1788545045 | 37.22° C | 51% | 1013.9 hPa | 0 mm | - | - | - |
| 1788544439 | 37.22° C | 48% | 1014.1 hPa | 0 mm | - | - | - |
| 1788543833 | 37.78° C | 48% | 1014 hPa | 0 mm | - | - | - |
| 1788543226 | 37.78° C | 49% | 1014.1 hPa | 0 mm | - | - | - |
* Rain latest hour (hover to see other rain measurements)
** Current wind speed in m/s (hover to see current wind gust speed)